Location: Namasale
(1.5000°N, 32.6167°E)
Time: 18:19:47
(UTC+00:00)

Vanguard 1 Rocket - Pass Details

Date: 22 April 2021
Orbit: 651 x 4225 km, 34.3° (Epoch: 17 May)

Event Time Altitude Azimuth Distance (km) Brightness Sun altitude
Rises 07:33:28 0° 242° (WSW) 7,627 11.8 54.9°
Reaches altitude 10° 07:39:33 10° 246° (WSW) 6,095 11.4 56.4°
Maximum altitude 07:55:35 53° 318° (NW) 2,266 10.0 60.1°
Drops below altitude 10° 08:03:47 10° 34° (NE) 3,250 10.8 62.0°
Sets 08:06:03 0° 40° (NE) 3,931 11.0 62.5°
